LNK146 EDDF-EGLL

Flight info

Callsign LNK146
Flight time 1h 9m
Altitude 40000
Route OBOKA5G OBOKA Z29 TORNU DCT ABNED L980 LOGAN
Aircraft A35K/H-SDE2E3GHIJ3J4J5LM1ORWXY/LB1D1

Departure

Time 2026-04-14 05:47
Airport Frankfurt Main Airport (EDDF)

Arrival

Time 2026-04-14 06:56
Airport London Heathrow Airport (EGLL)
Time Latitude Longitude Altitude Speed Heading
2026-04-14 05:32 50.04910 8.58192 358 ft 0 kts 339°
2026-04-14 05:37 50.04902 8.58197 361 ft 4 kts 340°
2026-04-14 05:37 50.04880 8.58209 361 ft 4 kts 353°
2026-04-14 05:37 50.04861 8.58200 361 ft 4 kts 61°
2026-04-14 05:38 50.04851 8.58163 361 ft 2 kts 70°
2026-04-14 05:38 50.04855 8.58181 361 ft 4 kts 70°
2026-04-14 05:38 50.04862 8.58210 351 ft 4 kts 70°
2026-04-14 05:38 50.04876 8.58269 359 ft 4 kts 70°
2026-04-14 05:39 50.04887 8.58318 359 ft 6 kts 70°
2026-04-14 05:39 50.04902 8.58380 359 ft 4 kts 70°
2026-04-14 05:39 50.04912 8.58423 356 ft 4 kts 70°
2026-04-14 05:39 50.04919 8.58452 359 ft 4 kts 70°
2026-04-14 05:40 50.04925 8.58478 358 ft 0 kts 70°
2026-04-14 05:42 50.04926 8.58481 357 ft 0 kts 70°
2026-04-14 05:43 50.04926 8.58482 357 ft 1 kts 70°
2026-04-14 05:43 50.04943 8.58552 361 ft 13 kts 70°
2026-04-14 05:43 50.04954 8.58601 356 ft 0 kts 70°
2026-04-14 05:44 50.04955 8.58603 356 ft 0 kts 70°
2026-04-14 05:44 50.04955 8.58604 356 ft 0 kts 70°
2026-04-14 05:44 50.04955 8.58605 356 ft 1 kts 71°
2026-04-14 05:45 50.04953 8.58614 356 ft 1 kts 99°
2026-04-14 05:45 50.04949 8.58620 356 ft 1 kts 130°
2026-04-14 05:45 50.04911 8.58656 360 ft 14 kts 153°
2026-04-14 05:45 50.04813 8.58721 360 ft 17 kts 159°
2026-04-14 05:46 50.04691 8.58763 356 ft 19 kts 181°
2026-04-14 05:46 50.04563 8.58680 356 ft 21 kts 217°
2026-04-14 05:46 50.04478 8.58491 361 ft 23 kts 248°
2026-04-14 05:46 50.04354 8.58019 360 ft 94 kts 248°
2026-04-14 05:47 50.04010 8.56557 484 ft 178 kts 251°
2026-04-14 05:47 50.03545 8.54671 1582 ft 198 kts 251°
2026-04-14 05:47 50.03049 8.52646 2411 ft 208 kts 253°
2026-04-14 05:47 50.02728 8.50419 3039 ft 209 kts 272°
2026-04-14 05:48 50.02800 8.48196 3857 ft 205 kts 278°
2026-04-14 05:48 50.02951 8.45971 4629 ft 206 kts 278°
2026-04-14 05:48 50.02947 8.43742 5343 ft 208 kts 265°
2026-04-14 05:48 50.02709 8.41500 6074 ft 209 kts 261°
2026-04-14 05:49 50.02437 8.39307 6728 ft 210 kts 261°
2026-04-14 05:49 50.02163 8.37057 7341 ft 214 kts 261°
2026-04-14 05:49 50.01880 8.34714 7814 ft 227 kts 260°
2026-04-14 05:49 50.01586 8.32275 8398 ft 233 kts 260°
2026-04-14 05:50 50.01343 8.29765 9079 ft 236 kts 265°
2026-04-14 05:50 50.01492 8.27168 9475 ft 255 kts 284°
2026-04-14 05:50 50.02173 8.24508 9986 ft 269 kts 294°
2026-04-14 05:50 50.02984 8.21838 10522 ft 280 kts 293°
2026-04-14 05:51 50.03827 8.19002 10903 ft 296 kts 292°
2026-04-14 05:51 50.04691 8.16053 11257 ft 312 kts 292°
2026-04-14 05:51 50.05638 8.12923 11616 ft 327 kts 295°
2026-04-14 05:51 50.06936 8.09905 12011 ft 342 kts 306°
2026-04-14 05:52 50.08451 8.06992 12533 ft 350 kts 307°
2026-04-14 05:52 50.10012 8.04001 13073 ft 356 kts 306°
2026-04-14 05:52 50.11583 8.00963 13673 ft 362 kts 306°
2026-04-14 05:52 50.13168 7.97890 14212 ft 366 kts 306°
2026-04-14 05:53 50.14756 7.94803 14743 ft 370 kts 306°
2026-04-14 05:53 50.16377 7.91649 15306 ft 374 kts 306°
2026-04-14 05:53 50.17991 7.88498 15849 ft 377 kts 306°
2026-04-14 05:53 50.19641 7.85274 16408 ft 380 kts 306°
2026-04-14 05:54 50.21299 7.82029 16961 ft 384 kts 306°
2026-04-14 05:54 50.22968 7.78763 17629 ft 383 kts 305°
2026-04-14 05:54 50.24712 7.75570 18231 ft 388 kts 311°
2026-04-14 05:54 50.26862 7.72956 18718 ft 397 kts 327°
2026-04-14 05:55 50.29339 7.71085 19147 ft 403 kts 333°
2026-04-14 05:55 50.31937 7.69337 19590 ft 407 kts 334°
2026-04-14 05:55 50.34557 7.67570 20054 ft 411 kts 333°
2026-04-14 05:55 50.37136 7.65614 20492 ft 412 kts 326°
2026-04-14 05:56 50.39388 7.62960 20945 ft 409 kts 313°
2026-04-14 05:56 50.41377 7.59723 21396 ft 411 kts 308°
2026-04-14 05:56 50.43216 7.56275 21832 ft 413 kts 305°
2026-04-14 05:56 50.44986 7.52699 22263 ft 415 kts 303°
2026-04-14 05:57 50.46734 7.49066 22698 ft 418 kts 303°
2026-04-14 05:57 50.48476 7.45446 23111 ft 422 kts 303°
2026-04-14 05:57 50.50258 7.41768 23575 ft 424 kts 305°
2026-04-14 05:57 50.52062 7.38084 24122 ft 422 kts 305°
2026-04-14 05:58 50.53866 7.34427 24509 ft 424 kts 305°
2026-04-14 05:58 50.55665 7.30792 24819 ft 427 kts 305°
2026-04-14 05:58 50.57496 7.27090 25105 ft 429 kts 305°
2026-04-14 05:58 50.59335 7.23370 25389 ft 431 kts 305°
2026-04-14 05:59 50.61180 7.19630 25702 ft 433 kts 305°
2026-04-14 05:59 50.63017 7.15901 26008 ft 435 kts 305°
2026-04-14 05:59 50.64893 7.12083 26310 ft 437 kts 304°
2026-04-14 05:59 50.66729 7.08340 26614 ft 438 kts 304°
2026-04-14 06:00 50.68596 7.04529 26940 ft 440 kts 304°
2026-04-14 06:00 50.70482 7.00676 27256 ft 442 kts 306°
2026-04-14 06:00 50.72363 6.96825 27569 ft 441 kts 306°
2026-04-14 06:00 50.74225 6.92944 27898 ft 441 kts 303°
2026-04-14 06:01 50.75807 6.88883 28201 ft 441 kts 297°
2026-04-14 06:01 50.77262 6.84617 28526 ft 442 kts 296°
2026-04-14 06:01 50.78658 6.80289 28850 ft 444 kts 295°
2026-04-14 06:01 50.80041 6.75877 29205 ft 446 kts 295°
2026-04-14 06:02 50.81410 6.71465 29540 ft 447 kts 295°
2026-04-14 06:02 50.82778 6.67049 29877 ft 447 kts 295°
2026-04-14 06:02 50.84156 6.62611 30230 ft 447 kts 295°
2026-04-14 06:02 50.85526 6.58209 30519 ft 446 kts 295°
2026-04-14 06:03 50.86895 6.53814 30799 ft 444 kts 295°
2026-04-14 06:03 50.88242 6.49492 31097 ft 442 kts 295°
2026-04-14 06:03 50.89601 6.45128 31413 ft 441 kts 295°
2026-04-14 06:04 50.92326 6.36352 32015 ft 448 kts 295°
2026-04-14 06:04 50.93692 6.31942 32342 ft 452 kts 295°
2026-04-14 06:04 50.95082 6.27442 32655 ft 456 kts 295°
2026-04-14 06:04 50.96482 6.22902 32973 ft 459 kts 295°
2026-04-14 06:05 50.97886 6.18342 33291 ft 462 kts 295°
2026-04-14 06:05 50.99310 6.13708 33635 ft 464 kts 295°
2026-04-14 06:05 51.00729 6.09085 33963 ft 467 kts 295°
2026-04-14 06:05 51.02135 6.04493 34263 ft 468 kts 295°
2026-04-14 06:06 51.03558 5.99835 34550 ft 470 kts 295°
2026-04-14 06:06 51.04990 5.95140 34832 ft 472 kts 295°
2026-04-14 06:06 51.06419 5.90445 35114 ft 473 kts 295°
2026-04-14 06:06 51.07859 5.85706 35392 ft 474 kts 295°
2026-04-14 06:07 51.09296 5.80966 35697 ft 475 kts 295°
2026-04-14 06:07 51.10713 5.76282 35985 ft 475 kts 295°
2026-04-14 06:07 51.12145 5.71541 36276 ft 476 kts 295°
2026-04-14 06:07 51.13578 5.66784 36594 ft 476 kts 295°
2026-04-14 06:08 51.15006 5.62038 36890 ft 474 kts 295°
2026-04-14 06:08 51.16430 5.57296 37198 ft 471 kts 296°
2026-04-14 06:08 51.17841 5.52588 37503 ft 470 kts 296°
2026-04-14 06:08 51.19254 5.47862 37848 ft 470 kts 296°
2026-04-14 06:09 51.20659 5.43154 38170 ft 470 kts 296°
2026-04-14 06:09 51.22045 5.38501 38492 ft 469 kts 295°
2026-04-14 06:09 51.23442 5.33802 38829 ft 469 kts 296°
2026-04-14 06:09 51.24838 5.29098 39085 ft 468 kts 295°
2026-04-14 06:10 51.26224 5.24416 39346 ft 466 kts 295°
2026-04-14 06:10 51.27611 5.19719 39617 ft 465 kts 296°
2026-04-14 06:10 51.28982 5.15073 39886 ft 463 kts 295°
2026-04-14 06:10 51.30361 5.10388 40103 ft 463 kts 295°
2026-04-14 06:11 51.31736 5.05709 40131 ft 468 kts 295°
2026-04-14 06:11 51.34500 4.96274 40129 ft 471 kts 295°
2026-04-14 06:12 51.37274 4.86769 40128 ft 470 kts 295°
2026-04-14 06:12 51.40042 4.77244 40130 ft 470 kts 295°
2026-04-14 06:13 51.42768 4.67826 40129 ft 467 kts 295°
2026-04-14 06:13 51.45493 4.58375 40128 ft 466 kts 295°
2026-04-14 06:14 51.48192 4.48978 40128 ft 466 kts 295°
2026-04-14 06:14 51.50897 4.39527 40131 ft 466 kts 295°
2026-04-14 06:15 51.53602 4.30031 40128 ft 466 kts 295°
2026-04-14 06:15 51.56292 4.20552 40129 ft 466 kts 295°
2026-04-14 06:16 51.58955 4.11128 40128 ft 466 kts 295°
2026-04-14 06:16 51.61638 4.01597 40128 ft 466 kts 295°
2026-04-14 06:17 51.64317 3.92042 40127 ft 466 kts 295°
2026-04-14 06:17 51.66960 3.82575 40125 ft 466 kts 295°
2026-04-14 06:18 51.69601 3.73079 40126 ft 463 kts 295°
2026-04-14 06:18 51.72239 3.63553 40129 ft 463 kts 295°
2026-04-14 06:19 51.74838 3.54132 40127 ft 463 kts 294°
2026-04-14 06:19 51.77449 3.44628 40126 ft 458 kts 294°
2026-04-14 06:19 51.78722 3.39979 40124 ft 447 kts 294°
2026-04-14 06:20 51.79967 3.35420 40125 ft 440 kts 294°
2026-04-14 06:20 51.82408 3.26461 40137 ft 436 kts 294°
2026-04-14 06:21 51.84224 3.17132 40138 ft 437 kts 280°
2026-04-14 06:21 51.84327 3.07262 40140 ft 441 kts 268°
2026-04-14 06:22 51.83725 2.97384 40140 ft 443 kts 266°
2026-04-14 06:22 51.83371 2.92400 39963 ft 442 kts 266°
2026-04-14 06:22 51.83019 2.87495 39281 ft 446 kts 266°
2026-04-14 06:22 51.82668 2.82511 38874 ft 441 kts 266°
2026-04-14 06:23 51.82328 2.77633 38443 ft 435 kts 266°
2026-04-14 06:23 51.81994 2.72784 37869 ft 431 kts 267°
2026-04-14 06:23 51.81666 2.67996 37359 ft 427 kts 267°
2026-04-14 06:23 51.81346 2.63254 36928 ft 421 kts 267°
2026-04-14 06:24 51.81031 2.58635 36503 ft 415 kts 267°
2026-04-14 06:24 51.80710 2.54021 36094 ft 410 kts 267°
2026-04-14 06:24 51.80389 2.49456 35697 ft 404 kts 268°
2026-04-14 06:24 51.80072 2.44982 35317 ft 398 kts 268°
2026-04-14 06:25 51.79758 2.40570 34947 ft 392 kts 268°
2026-04-14 06:25 51.79451 2.36271 34666 ft 384 kts 268°
2026-04-14 06:25 51.79145 2.32001 34335 ft 377 kts 269°
2026-04-14 06:25 51.78845 2.27828 33945 ft 372 kts 269°
2026-04-14 06:26 51.78547 2.23689 33475 ft 368 kts 269°
2026-04-14 06:26 51.78296 2.20098 33082 ft 363 kts 270°
2026-04-14 06:26 51.78066 2.16115 32702 ft 357 kts 270°
2026-04-14 06:26 51.77844 2.12133 32326 ft 352 kts 270°
2026-04-14 06:27 51.77696 2.09530 32067 ft 349 kts 270°
2026-04-14 06:27 51.77396 2.04356 31567 ft 343 kts 270°
2026-04-14 06:27 51.77246 2.01817 31324 ft 339 kts 270°
2026-04-14 06:27 51.77022 1.98047 30966 ft 335 kts 270°
2026-04-14 06:28 51.76800 1.94330 30610 ft 330 kts 271°
2026-04-14 06:28 51.76578 1.90686 30274 ft 325 kts 271°
2026-04-14 06:28 51.76360 1.87096 29913 ft 319 kts 271°
2026-04-14 06:28 51.76144 1.83541 29480 ft 316 kts 271°
2026-04-14 06:29 51.75930 1.80031 29043 ft 312 kts 271°
2026-04-14 06:29 51.75716 1.76544 28638 ft 309 kts 271°
2026-04-14 06:29 51.75506 1.73156 28244 ft 305 kts 271°
2026-04-14 06:29 51.75295 1.69764 27850 ft 302 kts 270°
2026-04-14 06:30 51.75085 1.66391 27461 ft 300 kts 270°
2026-04-14 06:30 51.74875 1.63052 27064 ft 296 kts 270°
2026-04-14 06:30 51.74668 1.59757 26649 ft 295 kts 270°
2026-04-14 06:30 51.74463 1.56447 26088 ft 310 kts 269°
2026-04-14 06:31 51.74243 1.52873 25509 ft 329 kts 269°
2026-04-14 06:31 51.74005 1.49135 24928 ft 336 kts 268°
2026-04-14 06:31 51.73760 1.45384 24370 ft 338 kts 268°
2026-04-14 06:31 51.73511 1.41583 23791 ft 340 kts 267°
2026-04-14 06:32 51.73265 1.37823 23161 ft 341 kts 267°
2026-04-14 06:32 51.73014 1.34011 22503 ft 342 kts 266°
2026-04-14 06:32 51.72761 1.30170 21870 ft 343 kts 266°
2026-04-14 06:32 51.72507 1.26329 21237 ft 344 kts 266°
2026-04-14 06:33 51.72252 1.22494 20629 ft 344 kts 266°
2026-04-14 06:33 51.71998 1.18688 20037 ft 344 kts 265°
2026-04-14 06:33 51.71738 1.14812 19434 ft 344 kts 265°
2026-04-14 06:34 51.71222 1.07184 18300 ft 344 kts 264°
2026-04-14 06:34 51.71004 1.03326 17633 ft 343 kts 269°
2026-04-14 06:34 51.71198 0.99494 16989 ft 341 kts 282°
2026-04-14 06:34 51.71691 0.95780 16411 ft 338 kts 275°
2026-04-14 06:35 51.71555 0.92073 16160 ft 327 kts 261°
2026-04-14 06:35 51.71134 0.88606 16117 ft 311 kts 259°
2026-04-14 06:35 51.70703 0.85265 16121 ft 299 kts 259°
2026-04-14 06:35 51.70286 0.82028 16124 ft 298 kts 259°
2026-04-14 06:36 51.69864 0.78757 16127 ft 298 kts 259°
2026-04-14 06:36 51.69440 0.75467 16057 ft 297 kts 259°
2026-04-14 06:36 51.69023 0.72249 15824 ft 288 kts 259°
2026-04-14 06:36 51.68632 0.69186 15645 ft 278 kts 261°
2026-04-14 06:37 51.68353 0.66141 15368 ft 271 kts 264°
2026-04-14 06:37 51.68139 0.63213 15042 ft 268 kts 265°
2026-04-14 06:37 51.67928 0.60233 14695 ft 265 kts 265°
2026-04-14 06:37 51.67720 0.57304 14345 ft 262 kts 264°
2026-04-14 06:38 51.67514 0.54437 14020 ft 259 kts 264°
2026-04-14 06:38 51.67307 0.51572 13657 ft 256 kts 264°
2026-04-14 06:38 51.67100 0.48728 13267 ft 253 kts 264°
2026-04-14 06:38 51.66899 0.45916 12904 ft 251 kts 264°
2026-04-14 06:39 51.66695 0.43134 12536 ft 248 kts 264°
2026-04-14 06:39 51.66493 0.40412 12166 ft 246 kts 264°
2026-04-14 06:39 51.66290 0.37678 11807 ft 245 kts 264°
2026-04-14 06:39 51.66087 0.34947 11461 ft 244 kts 264°
2026-04-14 06:40 51.65889 0.32272 11103 ft 243 kts 264°
2026-04-14 06:40 51.65685 0.29540 10749 ft 241 kts 264°
2026-04-14 06:40 51.65487 0.26889 10421 ft 240 kts 264°
2026-04-14 06:40 51.65286 0.24218 10076 ft 239 kts 263°
2026-04-14 06:41 51.65086 0.21559 9699 ft 238 kts 263°
2026-04-14 06:41 51.64886 0.18910 9343 ft 237 kts 263°
2026-04-14 06:41 51.64688 0.16285 8958 ft 236 kts 263°
2026-04-14 06:41 51.64498 0.13664 8587 ft 235 kts 264°
2026-04-14 06:42 51.64354 0.11070 8245 ft 234 kts 264°
2026-04-14 06:42 51.64221 0.08454 7875 ft 234 kts 264°
2026-04-14 06:42 51.64084 0.05845 7517 ft 233 kts 264°
2026-04-14 06:42 51.63944 0.03256 7212 ft 231 kts 264°
2026-04-14 06:43 51.63802 0.00677 7126 ft 232 kts 263°
2026-04-14 06:43 51.63659 -0.01920 7086 ft 232 kts 263°
2026-04-14 06:43 51.63517 -0.04456 7085 ft 232 kts 263°
2026-04-14 06:43 51.63372 -0.07047 6993 ft 231 kts 263°
2026-04-14 06:44 51.63227 -0.09619 6974 ft 231 kts 263°
2026-04-14 06:44 51.63080 -0.12224 6969 ft 231 kts 263°
2026-04-14 06:44 51.62934 -0.14773 6968 ft 231 kts 263°
2026-04-14 06:44 51.62788 -0.17343 6967 ft 231 kts 263°
2026-04-14 06:45 51.62639 -0.19936 6967 ft 231 kts 263°
2026-04-14 06:45 51.62490 -0.22524 6966 ft 231 kts 263°
2026-04-14 06:45 51.62342 -0.25088 6967 ft 231 kts 263°
2026-04-14 06:45 51.62191 -0.27681 6966 ft 231 kts 263°
2026-04-14 06:46 51.61892 -0.32810 6995 ft 231 kts 263°
2026-04-14 06:46 51.61741 -0.35386 6995 ft 231 kts 263°
2026-04-14 06:46 51.61588 -0.37973 6992 ft 231 kts 263°
2026-04-14 06:47 51.61436 -0.40553 6993 ft 231 kts 263°
2026-04-14 06:47 51.61285 -0.43095 6993 ft 231 kts 263°
2026-04-14 06:47 51.61130 -0.45694 6993 ft 231 kts 263°
2026-04-14 06:47 51.60975 -0.48281 6993 ft 231 kts 263°
2026-04-14 06:48 51.60823 -0.50821 6992 ft 231 kts 263°
2026-04-14 06:48 51.60667 -0.53408 6993 ft 231 kts 263°
2026-04-14 06:48 51.60511 -0.55996 6994 ft 231 kts 263°
2026-04-14 06:48 51.60354 -0.58570 6993 ft 231 kts 263°
2026-04-14 06:49 51.60199 -0.61118 6991 ft 231 kts 263°
2026-04-14 06:49 51.60040 -0.63714 6716 ft 235 kts 262°
2026-04-14 06:49 51.59882 -0.66323 6391 ft 233 kts 262°
2026-04-14 06:49 51.59724 -0.68898 6052 ft 230 kts 262°
2026-04-14 06:50 51.59559 -0.71441 5814 ft 223 kts 261°
2026-04-14 06:50 51.59154 -0.73748 5659 ft 210 kts 242°
2026-04-14 06:50 51.58271 -0.75505 5496 ft 197 kts 218°
2026-04-14 06:50 51.57095 -0.76495 5344 ft 186 kts 200°
2026-04-14 06:51 51.55870 -0.77115 5050 ft 183 kts 198°
2026-04-14 06:51 51.54674 -0.77680 4728 ft 180 kts 198°
2026-04-14 06:51 51.53475 -0.78259 4334 ft 179 kts 198°
2026-04-14 06:51 51.52265 -0.78695 3953 ft 179 kts 188°
2026-04-14 06:52 51.51016 -0.78574 3590 ft 180 kts 171°
2026-04-14 06:52 51.49858 -0.77799 3236 ft 182 kts 153°
2026-04-14 06:52 51.48843 -0.76662 3012 ft 176 kts 147°
2026-04-14 06:52 51.47958 -0.75293 2984 ft 182 kts 131°
2026-04-14 06:53 51.47581 -0.73298 2998 ft 194 kts 97°
2026-04-14 06:53 51.47663 -0.71129 2993 ft 195 kts 88°
2026-04-14 06:53 51.47733 -0.68992 2992 ft 193 kts 95°
2026-04-14 06:53 51.47684 -0.66845 2890 ft 185 kts 96°
2026-04-14 06:54 51.47686 -0.64844 2515 ft 181 kts 94°
2026-04-14 06:54 51.47701 -0.62838 2060 ft 178 kts 94°
2026-04-14 06:54 51.47710 -0.60879 1697 ft 170 kts 95°
2026-04-14 06:54 51.47711 -0.59030 1465 ft 160 kts 95°
2026-04-14 06:55 51.47717 -0.57293 1237 ft 151 kts 94°
2026-04-14 06:55 51.47722 -0.55640 1023 ft 149 kts 94°
2026-04-14 06:55 51.47728 -0.53985 803 ft 149 kts 92°
2026-04-14 06:55 51.47734 -0.52322 592 ft 148 kts 91°
2026-04-14 06:56 51.47741 -0.50687 394 ft 147 kts 91°
2026-04-14 06:56 51.47746 -0.49057 191 ft 143 kts 91°
2026-04-14 06:56 51.47756 -0.47531 94 ft 125 kts 88°
2026-04-14 06:56 51.47755 -0.46571 99 ft 45 kts 90°
2026-04-14 06:57 51.47748 -0.46237 95 ft 0 kts 111°
2026-04-14 06:57 51.47710 -0.46156 97 ft 20 kts 137°
2026-04-14 06:57 51.47606 -0.46078 96 ft 7 kts 178°
2026-04-14 06:57 51.47551 -0.46095 94 ft 10 kts 207°
2026-04-14 06:58 51.47515 -0.46204 94 ft 13 kts 254°
2026-04-14 06:58 51.47505 -0.46371 94 ft 17 kts 277°
2026-04-14 06:58 51.47515 -0.46578 93 ft 21 kts 272°
2026-04-14 06:58 51.47498 -0.46814 93 ft 20 kts 258°
2026-04-14 06:59 51.47418 -0.46878 94 ft 11 kts 156°
2026-04-14 06:59 51.47364 -0.46900 96 ft 4 kts 257°
2026-04-14 06:59 51.47370 -0.46951 95 ft 5 kts 264°
2026-04-14 06:59 51.47371 -0.46986 96 ft 0 kts 270°
2026-04-14 07:00 51.47371 -0.47010 92 ft 5 kts 270°
2026-04-14 07:00 51.47371 -0.47023 96 ft 0 kts 270°